KA1GJU-3 Weather Reports


time (UTC)temp
C
wind
direction
speed
KPH
gust
KPH
rain 1hr
cm
rain 24hr
cm
rain mn
cm
humidity
%
barometer
mb
20260508004412 10 292 0.0 0.0 0.00 0.00 0.00 100
20260508003411 10 303 0.0 3.2 0.00 0.00 0.00 100
20260508002412 10 262 0.0 6.4 0.00 0.00 0.00 100
20260508001411 11 299 3.2 3.2 0.00 0.00 0.00 100
20260508000413 11 282 0.0 8.0 0.00 0.00 0.00 100
20260507235411 11 248 0.0 6.4 0.00 0.00 0.00 100
20260507234412 11 306 1.6 4.8 0.00 0.00 0.00 100
20260507233411 12 295 6.4 12.9 0.00 0.00 0.00 100
20260507232412 13 309 9.7 11.3 0.00 0.00 0.00 100
20260507231411 13 288 4.8 14.5 0.00 0.00 0.00 100
20260507230412 14 255 3.2 8.0 0.00 0.00 0.00 100
20260507225411 15 271 8.0 16.1 0.00 0.00 0.00 100
20260507224413 15 288 8.0 16.1 0.00 0.00 0.00 100
20260507223411 15 268 1.6 8.0 0.00 0.00 0.00 100
20260507222413 15 262 4.8 20.9 0.00 0.00 0.00 100
20260507221411 16 309 4.8 9.7 0.00 0.00 0.00 100
20260507220413 15 298 3.2 11.3 0.00 0.00 0.00 100
20260507215411 15 264 6.4 17.7 0.00 0.00 0.00 100
20260507214411 16 295 9.7 14.5 0.00 0.00 0.00 100
20260507213413 16 277 6.4 19.3 0.00 0.00 0.00 100
20260507212411 16 264 8.0 14.5 0.00 0.00 0.00 100
20260507211413 17 241 8.0 14.5 0.00 0.00 0.00 100
20260507210411 17 288 11.3 20.9 0.00 0.00 0.00 100
20260507205413 17 265 1.6 19.3 0.00 0.00 0.00 100
20260507204412 17 312 6.4 16.1 0.00 0.00 0.00 100
20260507203412 17 250 9.7 20.9 0.00 0.00 0.00 100
20260507202413 17 18 11.3 20.9 0.00 0.00 0.00 100
20260507201412 18 253 6.4 14.5 0.00 0.00 0.00 100
20260507200414 17 295 8.0 16.1 0.00 0.00 0.00 100
20260507195413 18 310 3.2 12.9 0.00 0.00 0.00 100
20260507194412 17 251 8.0 16.1 0.00 0.00 0.00 100
20260507193412 18 257 8.0 11.3 0.00 0.00 0.00 100
20260507192415 18 267 6.4 16.1 0.00 0.00 0.00 100
20260507191411 18 289 4.8 17.7 0.00 0.00 0.00 100
20260507190412 18 302 4.8 14.5 0.00 0.00 0.00 100
20260507185412 18 302 8.0 19.3 0.00 0.00 0.00 100
20260507184412 17 196 1.6 17.7 0.00 0.00 0.00 100
20260507183412 18 281 8.0 14.5 0.00 0.00 0.00 100
20260507182413 18 264 3.2 22.5 0.00 0.00 0.00 100
20260507181412 18 277 16.1 16.1 0.00 0.00 0.00 100
20260507180413 17 255 3.2 16.1 0.00 0.00 0.00 100
20260507175412 17 285 9.7 16.1 0.00 0.00 0.00 100
20260507174413 17 292 12.9 19.3 0.00 0.00 0.00 100
20260507173412 17 275 16.1 25.7 0.00 0.00 0.00 100
20260507172413 16 320 3.2 19.3 0.00 0.00 0.00 100
20260507171412 17 267 8.0 14.5 0.00 0.00 0.00 100
20260507170412 17 261 9.7 19.3 0.00 0.00 0.00 100
20260507165413 17 306 12.9 14.5 0.00 0.00 0.00 100
20260507164412 16 298 1.6 12.9 0.00 0.00 0.00 100
20260507163413 17 243 1.6 14.5 0.00 0.00 0.00 100
20260507162412 15 279 6.4 16.1 0.00 0.00 0.00 100
20260507161413 16 246 16.1 22.5 0.00 0.00 0.00 100
20260507160412 16 279 11.3 11.3 0.00 0.00 0.00 100
20260507155414 15 300 8.0 16.1 0.00 0.00 0.00 100
20260507154413 16 322 4.8 12.9 0.00 0.00 0.00 100
20260507153414 15 316 6.4 14.5 0.00 0.00 0.00 100
20260507152413 15 295 8.0 20.9 0.00 0.00 0.00 100
20260507151413 15 272 3.2 8.0 0.00 0.00 0.00 100
20260507150414 16 267 4.8 8.0 0.00 0.00 0.00 100
20260507145413 16 288 4.8 14.5 0.00 0.00 0.00 100
20260507144413 16 264 9.7 16.1 0.00 0.00 0.00 100
20260507143413 16 286 6.4 11.3 0.00 0.00 0.00 100
20260507142413 16 288 8.0 11.3 0.00 0.00 0.00 100
20260507141413 15 299 3.2 12.9 0.00 0.00 0.00 100
20260507140413 16 281 0.0 9.7 0.00 0.00 0.00 100
20260507135413 14 258 4.8 14.5 0.00 0.00 0.00 100
20260507134413 15 286 4.8 6.4 0.00 0.00 0.00 100
20260507133413 14 277 4.8 8.0 0.00 0.00 0.00 100
20260507132413 13 265 3.2 11.3 0.00 0.00 0.00 100
20260507131416 14 277 3.2 6.4 0.00 0.00 0.00 100
20260507130413 13 284 4.8 6.4 0.00 0.00 0.00 100
20260507125413 12 291 1.6 11.3 0.00 0.00 0.00 100
20260507124414 12 312 3.2 12.9 0.00 0.00 0.00 100
20260507123414 11 285 6.4 11.3 0.00 0.00 0.00 100
20260507122414 11 319 1.6 11.3 0.00 0.00 0.00 100
20260507121413 11 316 3.2 16.1 0.00 0.00 0.00 100
20260507120413 11 323 0.0 8.0 0.00 0.00 0.00 100
20260507115413 11 295 1.6 8.0 0.00 0.00 0.00 100
20260507114413 9 239 0.0 3.2 0.00 0.00 0.00 100
20260507113412 8 244 0.0 1.6 0.00 0.00 0.00 100
20260507112413 8 330 0.0 4.8 0.00 0.00 0.00 100
20260507111412 8 90 1.6 6.4 0.00 0.00 0.00 100
20260507110413 8 230 0.0 4.8 0.00 0.00 0.00 100
20260507105412 8 240 0.0 6.4 0.00 0.00 0.00 100
20260507104413 7 274 3.2 6.4 0.00 0.00 0.00 100
20260507103412 8 19 4.8 4.8 0.00 0.00 0.00 100
20260507102414 8 46 3.2 6.4 0.00 0.00 0.00 100
20260507101412 8 289 0.0 3.2 0.00 0.00 0.00 100
20260507100414 7 19 1.6 3.2 0.00 0.00 0.00 100
20260507095414 8 182 0.0 4.8 0.00 0.00 0.00 100
20260507094414 8 302 3.2 6.4 0.00 0.00 0.00 100
20260507093413 7 285 0.0 3.2 0.00 0.00 0.00 100
20260507092414 8 302 3.2 8.0 0.00 0.00 0.00 100
20260507091414 8 279 3.2 9.7 0.00 0.00 0.00 100
20260507090414 8 312 1.6 8.0 0.00 0.00 0.00 100
20260507085414 8 284 1.6 6.4 0.00 0.00 0.00 100
20260507084414 8 306 4.8 6.4 0.00 0.00 0.00 100
20260507083414 8 281 4.8 4.8 0.00 0.00 0.00 100
20260507082414 8 265 3.2 8.0 0.00 0.00 0.00 100
20260507081414 8 292 4.8 12.9 0.00 0.00 0.00 100
20260507080414 8 278 3.2 11.3 0.00 0.00 0.00 100
20260507075414 9 279 4.8 14.5 0.00 0.00 0.00 100
20260507074414 9 236 6.4 12.9 0.00 0.00 0.00 100
20260507073414 9 265 6.4 12.9 0.00 0.00 0.00 100
20260507072414 8 281 1.6 9.7 0.00 0.00 0.00 100
20260507071414 9 313 4.8 11.3 0.00 0.00 0.00 100
20260507070414 9 310 6.4 12.9 0.00 0.00 0.00 100
20260507065414 9 295 9.7 14.5 0.00 0.00 0.00 100
20260507064414 9 289 6.4 12.9 0.00 0.00 0.00 100
20260507063414 10 319 6.4 8.0 0.00 0.00 0.00 100
20260507062414 10 278 3.2 9.7 0.00 0.00 0.00 100
20260507061414 10 285 4.8 9.7 0.00 0.00 0.00 100
20260507060414 10 279 3.2 8.0 0.00 0.00 0.00 100
20260507055414 10 323 3.2 6.4 0.00 0.00 0.00 100
20260507054414 10 265 4.8 8.0 0.00 0.00 0.00 100
20260507053414 10 303 3.2 11.3 0.00 0.00 0.00 100
20260507052414 10 270 6.4 9.7 0.00 0.00 0.00 100
20260507051414 10 275 6.4 9.7 0.00 0.00 0.00 100
20260507050415 11 307 1.6 8.0 0.00 0.00 0.00 100
20260507045414 11 279 8.0 8.0 0.00 0.00 0.00 100
20260507044415 11 268 4.8 14.5 0.00 0.00 0.00 100
20260507043415 12 307 0.0 11.3 0.00 0.00 0.00 100
20260507042414 12 244 9.7 9.7 0.00 0.00 0.00 100
20260507041414 12 295 6.4 9.7 0.00 0.00 0.00 100
20260507040415 12 282 6.4 14.5 0.00 0.00 0.00 100
20260507035414 12 296 3.2 14.5 0.00 0.00 0.00 100
20260507034414 13 270 4.8 12.9 0.00 0.00 0.00 100
20260507033415 12 288 3.2 17.7 0.00 0.00 0.00 100
20260507032414 14 275 6.4 25.7 0.00 0.00 0.00 100
20260507031415 14 295 6.4 14.5 0.00 0.00 0.00 100
20260507030414 14 271 11.3 12.9 0.00 0.00 0.00 100
20260507025414 14 261 6.4 16.1 0.00 0.00 0.00 100
20260507024414 14 244 6.4 16.1 0.00 0.00 0.00 100
20260507023415 15 250 6.4 14.5 0.00 0.00 0.00 100
20260507022415 14 264 4.8 17.7 0.00 0.00 0.00 100
20260507021414 14 261 12.9 12.9 0.00 0.00 0.00 100
20260507020414 14 248 4.8 11.3 0.00 0.00 0.00 100
20260507015414 15 239 3.2 9.7 0.00 0.00 0.00 100
20260507014414 14 262 9.7 19.3 0.00 0.00 0.00 100
20260507013414 15 237 6.4 14.5 0.00 0.00 0.00 100
20260507012414 14 223 4.8 14.5 0.00 0.00 0.00 100
20260507011415 14 230 4.8 14.5 0.00 0.00 0.00 100
20260507010414 15 257 4.8 19.3 0.00 0.00 0.00 100
20260507005415 14 239 3.2 9.7 0.00 0.00 0.00 100